Location: Powder Track
(41.8531°N, 72.3584°W)
Time: 00:48:02
(UTC+00:00)

Vanguard 2 Rocket - Pass Details

Date: 01 August 2021
Orbit: 556 x 3324 km, 32.9° (Epoch: 22 September)

Event Time Altitude Azimuth Distance (km) Brightness Sun altitude
Rises 14:22:39 0° 253° (WSW) 2,722 9.1 49.6°
Reaches altitude 10° 14:24:57 10° 239° (WSW) 1,873 8.4 50.0°
Maximum altitude 14:28:26 27° 180° (S) 1,251 8.3 50.5°
Drops below altitude 10° 14:32:52 10° 123° (ESE) 2,415 10.0 51.3°
Sets 14:36:16 0° 112° (ESE) 3,719 10.6 51.8°
